• In Belgien
  • Länderverzeichnis
  • Für 7 Tage
  • Wassertemperatur
  • Satellitenkarten
  • Wetterkarte
  • Widgets
  • user-avatar
    Anmelden

    Stündliche Wetter Korçe

    Heute, 17 August, Donnerstag

    Zeit Temperatur Niederschläge Wind Luftdruck Luftfeuchtigkeit
    00:00 +18°C° 0,1 mm 2 m/S 668 mmHg 62%
    01:00 +17°C° 0,1 mm 2 m/S 668 mmHg 64%
    02:00 +17°C° 0 mm 2 m/S 667 mmHg 65%
    03:00 +17°C° 0 mm 2 m/S 667 mmHg 66%
    04:00 +16°C° 0 mm 2 m/S 667 mmHg 68%
    05:00 +18°C° 0 mm 2 m/S 668 mmHg 63%
    06:00 +19°C° 0 mm 2 m/S 668 mmHg 59%
    07:00 +21°C° 0 mm 2 m/S 668 mmHg 54%
    08:00 +24°C° 0 mm 2 m/S 669 mmHg 48%
    09:00 +25°C° 0 mm 2 m/S 669 mmHg 41%
    10:00 +27°C° 0 mm 2 m/S 670 mmHg 34%
    11:00 +28°C° 0 mm 3 m/S 670 mmHg 32%
    12:00 +29°C° 0 mm 3 m/S 670 mmHg 30%
    13:00 +30°C° 0 mm 3 m/S 670 mmHg 28%
    14:00 +29°C° 0 mm 3 m/S 670 mmHg 30%
    15:00 +28°C° 0 mm 3 m/S 669 mmHg 32%
    16:00 +28°C° 0 mm 3 m/S 669 mmHg 34%
    17:00 +26°C° 0 mm 3 m/S 669 mmHg 39%
    18:00 +24°C° 0 mm 2 m/S 668 mmHg 43%
    19:00 +21°C° 0 mm 2 m/S 668 mmHg 47%
    20:00 +21°C° 0 mm 2 m/S 668 mmHg 49%
    21:00 +20°C° 0 mm 2 m/S 668 mmHg 51%
    22:00 +19°C° 0 mm 2 m/S 668 mmHg 53%
    23:00 +18°C° 0 mm 2 m/S 668 mmHg 54%

    Morgen, 18 August, Freitag

    Zeit Temperatur Niederschläge Wind Luftdruck Luftfeuchtigkeit
    00:00 +18°C° 0 mm 2 m/S 668 mmHg 56%
    01:00 +17°C° 0 mm 2 m/S 668 mmHg 57%
    02:00 +17°C° 0 mm 2 m/S 668 mmHg 59%
    03:00 +17°C° 0 mm 2 m/S 668 mmHg 60%
    04:00 +16°C° 0 mm 2 m/S 668 mmHg 62%
    05:00 +18°C° 0 mm 2 m/S 668 mmHg 57%
    06:00 +20°C° 0 mm 2 m/S 669 mmHg 53%
    07:00 +21°C° 0 mm 2 m/S 670 mmHg 49%
    08:00 +24°C° 0 mm 2 m/S 670 mmHg 42%
    09:00 +26°C° 0 mm 2 m/S 671 mmHg 36%
    10:00 +28°C° 0 mm 2 m/S 671 mmHg 30%
    11:00 +29°C° 0 mm 2 m/S 671 mmHg 28%
    12:00 +29°C° 0 mm 2 m/S 671 mmHg 26%
    13:00 +30°C° 0 mm 2 m/S 671 mmHg 25%
    14:00 +30°C° 0 mm 2 m/S 671 mmHg 26%
    15:00 +29°C° 0 mm 3 m/S 670 mmHg 27%
    16:00 +29°C° 0 mm 3 m/S 670 mmHg 28%
    17:00 +27°C° 0 mm 2 m/S 670 mmHg 33%
    18:00 +24°C° 0 mm 2 m/S 669 mmHg 39%
    19:00 +22°C° 0 mm 1 m/S 669 mmHg 44%
    20:00 +21°C° 0 mm 1 m/S 669 mmHg 46%
    21:00 +20°C° 0 mm 1 m/S 669 mmHg 48%
    22:00 +20°C° 0 mm 1 m/S 669 mmHg 50%
    23:00 +19°C° 0 mm 1 m/S 669 mmHg 51%

    übermorgen, 19 August, Samstag

    Zeit Temperatur Niederschläge Wind Luftdruck Luftfeuchtigkeit
    00:00 +19°C° 0 mm 1 m/S 669 mmHg 51%
    01:00 +19°C° 0 mm 1 m/S 668 mmHg 52%
    02:00 +18°C° 0 mm 1 m/S 668 mmHg 52%
    03:00 +18°C° 0 mm 1 m/S 668 mmHg 53%
    04:00 +18°C° 0 mm 1 m/S 668 mmHg 53%
    05:00 +20°C° 0 mm 1 m/S 668 mmHg 50%
    06:00 +21°C° 0 mm 1 m/S 669 mmHg 46%
    07:00 +23°C° 0 mm 1 m/S 670 mmHg 43%
    08:00 +25°C° 0 mm 1 m/S 670 mmHg 39%
    09:00 +27°C° 0 mm 1 m/S 671 mmHg 34%
    10:00 +29°C° 0 mm 1 m/S 671 mmHg 30%
    11:00 +29°C° 0 mm 1 m/S 671 mmHg 29%
    12:00 +29°C° 0 mm 2 m/S 671 mmHg 29%
    13:00 +30°C° 0 mm 2 m/S 670 mmHg 28%
    14:00 +29°C° 0 mm 2 m/S 670 mmHg 30%
    15:00 +28°C° 0 mm 2 m/S 670 mmHg 33%
    16:00 +27°C° 0 mm 2 m/S 669 mmHg 35%
    17:00 +25°C° 0 mm 2 m/S 669 mmHg 39%
    18:00 +23°C° 0 mm 2 m/S 669 mmHg 43%
    19:00 +22°C° 0 mm 1 m/S 668 mmHg 47%
    20:00 +21°C° 0 mm 1 m/S 668 mmHg 49%
    21:00 +20°C° 0 mm 1 m/S 668 mmHg 51%
    22:00 +19°C° 0 mm 1 m/S 668 mmHg 53%
    23:00 +19°C° 0 mm 1 m/S 668 mmHg 54%

    20 August, Sonntag

    Zeit Temperatur Niederschläge Wind Luftdruck Luftfeuchtigkeit
    00:00 +19°C° 0 mm 1 m/S 668 mmHg 54%
    01:00 +18°C° 0 mm 1 m/S 668 mmHg 55%
    02:00 +18°C° 0 mm 1 m/S 667 mmHg 55%
    03:00 +18°C° 0 mm 1 m/S 667 mmHg 55%
    04:00 +16°C° 0 mm 1 m/S 667 mmHg 55%
    05:00 +19°C° 0 mm 1 m/S 667 mmHg 50%
    06:00 +21°C° 0 mm 1 m/S 668 mmHg 46%
    07:00 +23°C° 0 mm 1 m/S 669 mmHg 42%
    08:00 +25°C° 0 mm 1 m/S 669 mmHg 37%
    09:00 +27°C° 0 mm 1 m/S 670 mmHg 32%
    10:00 +29°C° 0 mm 1 m/S 670 mmHg 27%
    11:00 +29°C° 0 mm 2 m/S 670 mmHg 27%
    12:00 +30°C° 0 mm 2 m/S 670 mmHg 26%
    13:00 +30°C° 0 mm 2 m/S 669 mmHg 26%
    14:00 +29°C° 0 mm 2 m/S 669 mmHg 30%
    15:00 +28°C° 0 mm 2 m/S 669 mmHg 33%
    16:00 +27°C° 0 mm 2 m/S 668 mmHg 37%
    17:00 +25°C° 0,1 mm 2 m/S 668 mmHg 42%
    18:00 +23°C° 0,1 mm 1 m/S 668 mmHg 47%
    19:00 +22°C° 0,1 mm 1 m/S 668 mmHg 53%
    20:00 +21°C° 0,4 mm 1 m/S 668 mmHg 57%
    21:00 +20°C° 0,4 mm 1 m/S 668 mmHg 61%
    22:00 +19°C° 0,4 mm 1 m/S 667 mmHg 65%
    23:00 +19°C° 0,6 mm 1 m/S 667 mmHg 67%

    21 August, Montag

    Zeit Temperatur Niederschläge Wind Luftdruck Luftfeuchtigkeit
    00:00 +18°C° 0,6 mm 1 m/S 667 mmHg 70%
    01:00 +17°C° 0,6 mm 2 m/S 667 mmHg 72%
    02:00 +16°C° 0,5 mm 2 m/S 667 mmHg 74%
    03:00 +16°C° 0,5 mm 2 m/S 667 mmHg 77%
    04:00 +16°C° 0,5 mm 2 m/S 667 mmHg 79%
    05:00 +16°C° 0,3 mm 2 m/S 667 mmHg 77%
    06:00 +17°C° 0,3 mm 2 m/S 668 mmHg 75%
    07:00 +18°C° 0,3 mm 2 m/S 668 mmHg 73%
    08:00 +19°C° 0 mm 2 m/S 668 mmHg 67%
    09:00 +21°C° 0 mm 2 m/S 669 mmHg 60%
    10:00 +23°C° 0 mm 2 m/S 669 mmHg 53%
    11:00 +24°C° 0,3 mm 2 m/S 669 mmHg 50%
    12:00 +25°C° 0,3 mm 2 m/S 669 mmHg 46%
    13:00 +25°C° 0,3 mm 2 m/S 669 mmHg 43%
    14:00 +25°C° 0,2 mm 2 m/S 669 mmHg 43%
    15:00 +25°C° 0,2 mm 2 m/S 669 mmHg 43%
    16:00 +25°C° 0,2 mm 2 m/S 669 mmHg 42%
    17:00 +24°C° 0,1 mm 2 m/S 668 mmHg 48%
    18:00 +21°C° 0,1 mm 2 m/S 668 mmHg 54%
    19:00 +19°C° 0,1 mm 2 m/S 668 mmHg 60%
    20:00 +18°C° 0,2 mm 2 m/S 668 mmHg 63%
    21:00 +18°C° 0,2 mm 2 m/S 668 mmHg 66%
    22:00 +17°C° 0,2 mm 2 m/S 668 mmHg 70%
    23:00 +16°C° 0,1 mm 2 m/S 668 mmHg 71%

    22 August, Dienstag

    Zeit Temperatur Niederschläge Wind Luftdruck Luftfeuchtigkeit
    00:00 +16°C° 0,1 mm 2 m/S 668 mmHg 72%
    01:00 +16°C° 0,1 mm 2 m/S 667 mmHg 73%
    02:00 +15°C° 0 mm 2 m/S 667 mmHg 74%
    03:00 +15°C° 0 mm 2 m/S 667 mmHg 75%
    04:00 +15°C° 0 mm 2 m/S 667 mmHg 76%
    05:00 +16°C° 0 mm 1 m/S 668 mmHg 71%
    06:00 +19°C° 0 mm 1 m/S 668 mmHg 65%
    07:00 +20°C° 0 mm 1 m/S 669 mmHg 60%
    08:00 +22°C° 0 mm 1 m/S 669 mmHg 54%
    09:00 +24°C° 0 mm 1 m/S 669 mmHg 47%
    10:00 +27°C° 0 mm 1 m/S 670 mmHg 40%
    11:00 +27°C° 0 mm 1 m/S 670 mmHg 39%
    12:00 +27°C° 0 mm 2 m/S 669 mmHg 39%
    13:00 +27°C° 0 mm 2 m/S 669 mmHg 38%
    14:00 +26°C° 0,1 mm 2 m/S 668 mmHg 42%
    15:00 +25°C° 0,1 mm 2 m/S 668 mmHg 46%
    16:00 +24°C° 0,1 mm 2 m/S 668 mmHg 50%
    17:00 +23°C° 0,3 mm 2 m/S 667 mmHg 55%
    18:00 +21°C° 0,3 mm 1 m/S 667 mmHg 60%
    19:00 +20°C° 0,3 mm 1 m/S 667 mmHg 65%
    20:00 +19°C° 0,3 mm 1 m/S 667 mmHg 68%
    21:00 +18°C° 0,3 mm 1 m/S 667 mmHg 70%
    22:00 +18°C° 0,3 mm 1 m/S 667 mmHg 73%
    23:00 +18°C° 0,1 mm 1 m/S 667 mmHg 73%
    Mehr zeigen